Regional Weather Roundup
Issued by NWS Albany, NY

Home | Current Version | Previous Version | Text Only | Print | Product List | Glossary On
Versions: 1 2 3 4 5 6 7 8 9 10 11 12 13 14 15 16 17 18 19 20 21 22 23 24 25 26 27 28 29 30 31 32 33 34 35 36 37 38 39 40 41 42 43 44 45 46 47 48 49 50
000
ASUS41 KALY 091810
RWRALY

NEW YORK STATE HOURLY WEATHER ROUNDUP
NATIONAL WEATHER SERVICE ALBANY NY
100 PM EST TUE FEB 09 2016

NOTE: "FAIR" INDICATES FEW OR NO CLOUDS BELOW 12,000 FEET WITH NO
SIGNIFICANT WEATHER AND/OR NO OBSTRUCTIONS TO VISIBILITY.

NYZ032-033-038>043-046>054-057>066-NYZ062>081-091900-
EAST


CITY           SKY/WX    TMP DP  RH WIND       PRES   REMARKS
ALBANY         PTSUNNY   29  19  66 CALM      29.58F
GLENS FALLS    CLOUDY    26  18  71 CALM      29.58F
POUGHKEEPSIE   FLURRIES  31  20  63 CALM      29.57F
NEWBURGH       MOSUNNY   30  23  74 VRB5      29.57F WCI  25
MONTGOMERY     MOSUNNY   32  22  66 E3        29.55F
WHITE PLAINS   MOSUNNY   31  19  61 CALM      29.56F
ISLIP          CLOUDY    31  24  75 NE8       29.57F WCI  23
NEW YORK CITY  PTSUNNY   33  22  63 VRB7      29.59F WCI  27
CENTRAL PARK   CLOUDY    34  22  61 CALM      29.60F
$$

NYZ005>009-017-018-044>046-055-056-091900-
CENTRAL


CITY           SKY/WX    TMP DP  RH WIND       PRES   REMARKS
FULTON         CLOUDY    34  26  72 SE5       29.52F WCI  30
SYRACUSE       CLOUDY    31  26  82 NE7       29.51F WCI  24
ROME           FLURRIES  27  22  81 E7        29.55F WCI  19
ELMIRA         CLOUDY    38  30  73 VRB6      29.48F WCI  33
BINGHAMTON     CLOUDY    30  26  85 SW6       29.46F WCI  24
MONTICELLO     MOSUNNY   28  21  74 CALM      29.50F
$$

NYZ026>034-041>043-091900-
NORTH


CITY           SKY/WX    TMP DP  RH WIND       PRES   REMARKS
WATERTOWN      CLOUDY    28  24  85 N8        29.54F FOG     WCI  20
FORT DRUM      NOT AVBL
MASSENA        LGT SNOW  22  15  75 NE14      29.62F WCI   9
SARANAC LAKE   LGT SNOW  23  18  81 CALM      29.47F
PLATTSBURGH    LGT SNOW  25  21  85 E5        29.61F FOG     WCI  19
$$

NYZ001>004-010>016-019>021-091900-
WEST


CITY           SKY/WX    TMP DP  RH WIND       PRES   REMARKS
NIAGARA FALLS  CLOUDY    38  29  70 SW18      29.50F WCI  28
BUFFALO        FLURRIES  35  30  82 W15       29.50F WCI  25
DUNKIRK        CLOUDY    36  28  73 W14       29.52F WCI  27
JAMESTOWN      CLOUDY    32  23  69 W13       29.47F WCI  22
WELLSVILLE     FLURRIES  33  26  75 NW10      29.44F WCI  25
ROCHESTER      CLOUDY    40  31  70 NW12      29.49F WCI  33
PENN YAN       CLOUDY    38  30  73 SW5       29.48F WCI  34
$$

             KEY
       WCI = WIND CHILL INDEX
       VSB = VISIBILITY
       HX  = HEAT INDEX
$$



USA.gov is the U.S. government's official web portal to all federal, state and local government web resources and services.